Pescara, Italy

4:10 PM CEST on April 27, 2017 (GMT +0200)
Pescara

Weather History for LIBP - March, 2014

Change the Weather History Date:

Saturday, March 1, 2014

  Actual Average Record
Temperature  
Mean Temperature 50 °F -  
Max Temperature 59 °F 57 °F 75 °F (2007)
Min Temperature 42 °F 40 °F 26 °F (2005)
Degree Days  
Heating Degree Days 14    
Moisture  
Dew Point 35 °F    
Average Humidity 51    
Maximum Humidity 71    
Minimum Humidity 31    
Precipitation  
Precipitation 0.00 in 0.08 in - ()
Sea Level Pressure  
Sea Level Pressure 29.51 in    
Wind  
Wind Speed 6 mph ()    
Max Wind Speed 21 mph    
Max Gust Speed 31 mph    
Visibility 7.9 miles    
Events      
Averages and records for this station are not official NWS values.
T = Trace of Precipitation, MM = Missing Value Source: Averaged Metar Reports

Daily Weather History Graph

Daily Weather History Graph

Search for Another Location

Airport or City:

Trip Planner

Search our weather history database for the weather conditions in past years. The results will help you decide how hot, cold, wet, or windy it might be!

Date:

Astronomy

Mar. 01, 2014 Rise Set
Actual Time 6:39 AM CET 5:52 PM CET
Civil Twilight 6:10 AM CET 6:20 PM CET
Nautical Twilight 5:38 AM CET 6:53 PM CET
Astronomical Twilight 5:05 AM CET 7:26 PM CET
Moon 6:21 AM CET (3/1) 6:21 PM CET (3/1)
Length of Visible Light 12h 10m
Length of Day
11h 13m
New Moon, 0% of the Moon is Illuminated
Mar 1
New Moon
Mar 8
First Quarter
Mar 16
Full
Mar 24
Last Quarter
Mar 30
New

Hourly Weather History & Observations

Time (CET) Temp. Dew Point Humidity Pressure Visibility Wind Dir Wind Speed Gust Speed Precip Events Conditions
12:50 AM 50.0 °F 35.6 °F 58% 29.71 in 6.2 mi Calm Calm - N/A   Partly Cloudy
1:00 AM 49 °F 35 °F 48% 29.72 in 9 mi Calm Calm - -   Partly Cloudy
1:50 AM 46.4 °F 35.6 °F 66% 29.68 in 6.2 mi Variable 2.3 mph - N/A   Partly Cloudy
2:50 AM 48.2 °F 33.8 °F 58% 29.65 in 6.2 mi Variable 1.2 mph - N/A   Partly Cloudy
3:50 AM 44.6 °F 32.0 °F 61% 29.62 in 6.2 mi Variable 2.3 mph - N/A   Partly Cloudy
4:00 AM 44 °F 33 °F 53% 29.62 in 9 mi West 2.3 mph - -   Scattered Clouds
4:50 AM 44.6 °F 33.8 °F 66% 29.59 in 6.2 mi Variable 1.2 mph - N/A   Scattered Clouds
5:50 AM 44.6 °F 35.6 °F 71% 29.59 in 6.2 mi Variable 1.2 mph - N/A   Scattered Clouds
6:50 AM 44.6 °F 35.6 °F 71% 29.53 in 6.2 mi Variable 1.2 mph - N/A   Mostly Cloudy
7:00 AM 44 °F 35 °F 61% 29.56 in 12 mi NE 1.2 mph - -   Partly Cloudy
7:50 AM 50.0 °F 39.2 °F 66% 29.53 in 6.2 mi ESE 5.8 mph - N/A   Mostly Cloudy
8:50 AM 51.8 °F 37.4 °F 58% 29.53 in 6.2 mi ESE 8.1 mph 20.7 mph N/A   Mostly Cloudy
9:50 AM 53.6 °F 39.2 °F 58% 29.53 in 6.2 mi ESE 15.0 mph 26.5 mph N/A   Scattered Clouds
10:00 AM 53 °F 39 °F 47% 29.54 in 19 mi ESE 15.0 mph - -   Partly Cloudy
10:50 AM 55.4 °F 39.2 °F 54% 29.50 in 6.2 mi SE 19.6 mph - N/A   Scattered Clouds
11:50 AM 57.2 °F 39.2 °F 51% 29.50 in 6.2 mi SE 19.6 mph - N/A   Partly Cloudy
12:50 PM 57.2 °F 37.4 °F 48% 29.47 in 6.2 mi SE 17.3 mph 31.1 mph N/A   Mostly Cloudy
1:00 PM 56 °F 38 °F 39% 29.48 in 16 mi SE 17.3 mph - -   Partly Cloudy
1:50 PM 55.4 °F 37.4 °F 51% 29.44 in 6.2 mi SE 20.7 mph - N/A   Mostly Cloudy
2:50 PM 55.4 °F 37.4 °F 51% 29.42 in 6.2 mi SE 12.7 mph - N/A   Mostly Cloudy
3:50 PM 55.4 °F 35.6 °F 47% 29.42 in 6.2 mi SE 10.4 mph - N/A   Mostly Cloudy
4:00 PM 56 °F 36 °F 34% 29.43 in 16 mi SE 10.4 mph - -   Overcast
4:50 PM 55.4 °F 35.6 °F 47% 29.42 in 6.2 mi SSE 4.6 mph - N/A   Mostly Cloudy
5:50 PM 55.4 °F 33.8 °F 44% 29.42 in 6.2 mi SSW 12.7 mph - N/A   Mostly Cloudy
6:50 PM 53.6 °F 32.0 °F 44% 29.42 in 6.2 mi SW 10.4 mph - N/A   Mostly Cloudy
7:00 PM 53 °F 33 °F 34% 29.44 in 12 mi SW 10.4 mph - -   Mostly Cloudy
7:50 PM 51.8 °F 32.0 °F 47% 29.42 in 6.2 mi SW 12.7 mph - N/A   Scattered Clouds
8:50 PM 53.6 °F 30.2 °F 41% 29.42 in 6.2 mi SW 17.3 mph 28.8 mph N/A   Partly Cloudy
9:50 PM 51.8 °F 30.2 °F 44% 29.42 in 6.2 mi SW 11.5 mph - N/A   Partly Cloudy
10:00 PM 51 °F 30 °F 31% 29.42 in 34 mi SW 11.5 mph - -   Scattered Clouds
10:50 PM 51.8 °F 28.4 °F 41% 29.42 in - SSW 13.8 mph - N/A   Clear
11:50 PM 50.0 °F 30.2 °F 47% 29.42 in - SW 10.4 mph - N/A   Clear